<?xml version="1.0"?>
<gpx xmlns="http://www.topografix.com/GPX/1/1" xmlns:xsi="http://www.w3.org/2001/XMLSchema-instance" version="1.1" creator="GPX RubyGem 1.0.0 -- http://dougfales.github.io/gpx/" xsi:schemaLocation="http://www.topografix.com/GPX/1/1 http://www.topografix.com/GPX/1/1/gpx.xsd">
  <metadata>
    <name/>
    <time>2026-05-08T03:30:10+00:00</time>
    <bound minlat="90.0" minlon="180.0" maxlat="-90.0" maxlon="-180.0"/>
  </metadata>
  <trk>
    <name/>
    <trkseg>
      <trkpt lat="42.601596" lon="1.686075">
        <time>1970-01-01T00:00:00+00:00</time>
        <ele>1828.0</ele>
      </trkpt>
      <trkpt lat="42.60169" lon="1.68616">
        <time>1970-01-01T00:00:00+00:00</time>
        <ele>1828.0</ele>
      </trkpt>
      <trkpt lat="42.601767" lon="1.68631">
        <time>1970-01-01T00:00:00+00:00</time>
        <ele>1829.0</ele>
      </trkpt>
      <trkpt lat="42.601813" lon="1.686799">
        <time>1970-01-01T00:00:00+00:00</time>
        <ele>1831.0</ele>
      </trkpt>
      <trkpt lat="42.601933" lon="1.687091">
        <time>1970-01-01T00:00:00+00:00</time>
        <ele>1833.0</ele>
      </trkpt>
      <trkpt lat="42.601977" lon="1.687163">
        <time>1970-01-01T00:00:00+00:00</time>
        <ele>1833.0</ele>
      </trkpt>
      <trkpt lat="42.601967" lon="1.687388">
        <time>1970-01-01T00:00:00+00:00</time>
        <ele>1834.0</ele>
      </trkpt>
      <trkpt lat="42.601933" lon="1.687582">
        <time>1970-01-01T00:00:00+00:00</time>
        <ele>1834.0</ele>
      </trkpt>
      <trkpt lat="42.601802" lon="1.687884">
        <time>1970-01-01T00:00:00+00:00</time>
        <ele>1837.0</ele>
      </trkpt>
      <trkpt lat="42.601662" lon="1.688146">
        <time>1970-01-01T00:00:00+00:00</time>
        <ele>1839.0</ele>
      </trkpt>
      <trkpt lat="42.601564" lon="1.688373">
        <time>1970-01-01T00:00:00+00:00</time>
        <ele>1843.0</ele>
      </trkpt>
      <trkpt lat="42.601519" lon="1.688544">
        <time>1970-01-01T00:00:00+00:00</time>
        <ele>1846.0</ele>
      </trkpt>
      <trkpt lat="42.601482" lon="1.689043">
        <time>1970-01-01T00:00:00+00:00</time>
        <ele>1851.0</ele>
      </trkpt>
      <trkpt lat="42.601567" lon="1.689593">
        <time>1970-01-01T00:00:00+00:00</time>
        <ele>1855.0</ele>
      </trkpt>
      <trkpt lat="42.601644" lon="1.689926">
        <time>1970-01-01T00:00:00+00:00</time>
        <ele>1856.0</ele>
      </trkpt>
      <trkpt lat="42.601486" lon="1.690288">
        <time>1970-01-01T00:00:00+00:00</time>
        <ele>1864.0</ele>
      </trkpt>
      <trkpt lat="42.601466" lon="1.690497">
        <time>1970-01-01T00:00:00+00:00</time>
        <ele>1866.0</ele>
      </trkpt>
      <trkpt lat="42.601482" lon="1.690749">
        <time>1970-01-01T00:00:00+00:00</time>
        <ele>1867.0</ele>
      </trkpt>
      <trkpt lat="42.601427" lon="1.691994">
        <time>1970-01-01T00:00:00+00:00</time>
        <ele>1883.0</ele>
      </trkpt>
      <trkpt lat="42.601427" lon="1.692482">
        <time>1970-01-01T00:00:00+00:00</time>
        <ele>1886.0</ele>
      </trkpt>
      <trkpt lat="42.60133" lon="1.693029">
        <time>1970-01-01T00:00:00+00:00</time>
        <ele>1893.0</ele>
      </trkpt>
      <trkpt lat="42.601241" lon="1.693332">
        <time>1970-01-01T00:00:00+00:00</time>
        <ele>1897.0</ele>
      </trkpt>
      <trkpt lat="42.601178" lon="1.693724">
        <time>1970-01-01T00:00:00+00:00</time>
        <ele>1903.0</ele>
      </trkpt>
      <trkpt lat="42.601194" lon="1.694035">
        <time>1970-01-01T00:00:00+00:00</time>
        <ele>1903.0</ele>
      </trkpt>
      <trkpt lat="42.601267" lon="1.694287">
        <time>1970-01-01T00:00:00+00:00</time>
        <ele>1901.0</ele>
      </trkpt>
      <trkpt lat="42.601304" lon="1.694834">
        <time>1970-01-01T00:00:00+00:00</time>
        <ele>1904.0</ele>
      </trkpt>
      <trkpt lat="42.60115" lon="1.695288">
        <time>1970-01-01T00:00:00+00:00</time>
        <ele>1913.0</ele>
      </trkpt>
      <trkpt lat="42.601132" lon="1.695588">
        <time>1970-01-01T00:00:00+00:00</time>
        <ele>1914.0</ele>
      </trkpt>
      <trkpt lat="42.601162" lon="1.695854">
        <time>1970-01-01T00:00:00+00:00</time>
        <ele>1914.0</ele>
      </trkpt>
      <trkpt lat="42.601237" lon="1.696175">
        <time>1970-01-01T00:00:00+00:00</time>
        <ele>1916.0</ele>
      </trkpt>
      <trkpt lat="42.601062" lon="1.696372">
        <time>1970-01-01T00:00:00+00:00</time>
        <ele>1922.0</ele>
      </trkpt>
      <trkpt lat="42.600999" lon="1.696585">
        <time>1970-01-01T00:00:00+00:00</time>
        <ele>1926.0</ele>
      </trkpt>
      <trkpt lat="42.60085" lon="1.696845">
        <time>1970-01-01T00:00:00+00:00</time>
        <ele>1931.0</ele>
      </trkpt>
      <trkpt lat="42.600774" lon="1.697076">
        <time>1970-01-01T00:00:00+00:00</time>
        <ele>1933.0</ele>
      </trkpt>
      <trkpt lat="42.600719" lon="1.697196">
        <time>1970-01-01T00:00:00+00:00</time>
        <ele>1936.0</ele>
      </trkpt>
      <trkpt lat="42.600609" lon="1.697204">
        <time>1970-01-01T00:00:00+00:00</time>
        <ele>1940.0</ele>
      </trkpt>
      <trkpt lat="42.600568" lon="1.697244">
        <time>1970-01-01T00:00:00+00:00</time>
        <ele>1942.0</ele>
      </trkpt>
      <trkpt lat="42.600562" lon="1.697302">
        <time>1970-01-01T00:00:00+00:00</time>
        <ele>1943.0</ele>
      </trkpt>
      <trkpt lat="42.600439" lon="1.697324">
        <time>1970-01-01T00:00:00+00:00</time>
        <ele>1948.0</ele>
      </trkpt>
      <trkpt lat="42.600403" lon="1.6974">
        <time>1970-01-01T00:00:00+00:00</time>
        <ele>1951.0</ele>
      </trkpt>
      <trkpt lat="42.600385" lon="1.697692">
        <time>1970-01-01T00:00:00+00:00</time>
        <ele>1954.0</ele>
      </trkpt>
      <trkpt lat="42.600343" lon="1.697797">
        <time>1970-01-01T00:00:00+00:00</time>
        <ele>1956.0</ele>
      </trkpt>
      <trkpt lat="42.599932" lon="1.698215">
        <time>1970-01-01T00:00:00+00:00</time>
        <ele>1974.0</ele>
      </trkpt>
      <trkpt lat="42.599771" lon="1.698199">
        <time>1970-01-01T00:00:00+00:00</time>
        <ele>1981.0</ele>
      </trkpt>
      <trkpt lat="42.599751" lon="1.698309">
        <time>1970-01-01T00:00:00+00:00</time>
        <ele>1980.0</ele>
      </trkpt>
      <trkpt lat="42.599727" lon="1.698309">
        <time>1970-01-01T00:00:00+00:00</time>
        <ele>1981.0</ele>
      </trkpt>
      <trkpt lat="42.599718" lon="1.698246">
        <time>1970-01-01T00:00:00+00:00</time>
        <ele>1982.0</ele>
      </trkpt>
      <trkpt lat="42.599623" lon="1.698251">
        <time>1970-01-01T00:00:00+00:00</time>
        <ele>1987.0</ele>
      </trkpt>
      <trkpt lat="42.599599" lon="1.698299">
        <time>1970-01-01T00:00:00+00:00</time>
        <ele>1988.0</ele>
      </trkpt>
      <trkpt lat="42.599544" lon="1.698326">
        <time>1970-01-01T00:00:00+00:00</time>
        <ele>1990.0</ele>
      </trkpt>
      <trkpt lat="42.599504" lon="1.698304">
        <time>1970-01-01T00:00:00+00:00</time>
        <ele>1993.0</ele>
      </trkpt>
      <trkpt lat="42.599453" lon="1.698433">
        <time>1970-01-01T00:00:00+00:00</time>
        <ele>1994.0</ele>
      </trkpt>
      <trkpt lat="42.599411" lon="1.698457">
        <time>1970-01-01T00:00:00+00:00</time>
        <ele>1997.0</ele>
      </trkpt>
      <trkpt lat="42.599217" lon="1.698715">
        <time>1970-01-01T00:00:00+00:00</time>
        <ele>2006.0</ele>
      </trkpt>
      <trkpt lat="42.599106" lon="1.6988">
        <time>1970-01-01T00:00:00+00:00</time>
        <ele>2010.0</ele>
      </trkpt>
      <trkpt lat="42.599027" lon="1.698821">
        <time>1970-01-01T00:00:00+00:00</time>
        <ele>2014.0</ele>
      </trkpt>
      <trkpt lat="42.598879" lon="1.6989">
        <time>1970-01-01T00:00:00+00:00</time>
        <ele>2022.0</ele>
      </trkpt>
      <trkpt lat="42.598813" lon="1.69911">
        <time>1970-01-01T00:00:00+00:00</time>
        <ele>2023.0</ele>
      </trkpt>
      <trkpt lat="42.598662" lon="1.699305">
        <time>1970-01-01T00:00:00+00:00</time>
        <ele>2030.0</ele>
      </trkpt>
      <trkpt lat="42.598589" lon="1.699266">
        <time>1970-01-01T00:00:00+00:00</time>
        <ele>2032.0</ele>
      </trkpt>
      <trkpt lat="42.598466" lon="1.699443">
        <time>1970-01-01T00:00:00+00:00</time>
        <ele>2037.0</ele>
      </trkpt>
      <trkpt lat="42.598451" lon="1.699528">
        <time>1970-01-01T00:00:00+00:00</time>
        <ele>2039.0</ele>
      </trkpt>
      <trkpt lat="42.598288" lon="1.699738">
        <time>1970-01-01T00:00:00+00:00</time>
        <ele>2051.0</ele>
      </trkpt>
      <trkpt lat="42.598158" lon="1.699939">
        <time>1970-01-01T00:00:00+00:00</time>
        <ele>2060.0</ele>
      </trkpt>
      <trkpt lat="42.597938" lon="1.700191">
        <time>1970-01-01T00:00:00+00:00</time>
        <ele>2068.0</ele>
      </trkpt>
      <trkpt lat="42.597763" lon="1.700707">
        <time>1970-01-01T00:00:00+00:00</time>
        <ele>2075.0</ele>
      </trkpt>
      <trkpt lat="42.597576" lon="1.7009">
        <time>1970-01-01T00:00:00+00:00</time>
        <ele>2085.0</ele>
      </trkpt>
      <trkpt lat="42.597504" lon="1.701036">
        <time>1970-01-01T00:00:00+00:00</time>
        <ele>2088.0</ele>
      </trkpt>
      <trkpt lat="42.597498" lon="1.701114">
        <time>1970-01-01T00:00:00+00:00</time>
        <ele>2088.0</ele>
      </trkpt>
      <trkpt lat="42.597455" lon="1.701185">
        <time>1970-01-01T00:00:00+00:00</time>
        <ele>2091.0</ele>
      </trkpt>
      <trkpt lat="42.597368" lon="1.701292">
        <time>1970-01-01T00:00:00+00:00</time>
        <ele>2095.0</ele>
      </trkpt>
      <trkpt lat="42.597334" lon="1.701267">
        <time>1970-01-01T00:00:00+00:00</time>
        <ele>2096.0</ele>
      </trkpt>
      <trkpt lat="42.597302" lon="1.701303">
        <time>1970-01-01T00:00:00+00:00</time>
        <ele>2098.0</ele>
      </trkpt>
      <trkpt lat="42.597263" lon="1.701296">
        <time>1970-01-01T00:00:00+00:00</time>
        <ele>2100.0</ele>
      </trkpt>
      <trkpt lat="42.597222" lon="1.701324">
        <time>1970-01-01T00:00:00+00:00</time>
        <ele>2102.0</ele>
      </trkpt>
      <trkpt lat="42.597167" lon="1.701327">
        <time>1970-01-01T00:00:00+00:00</time>
        <ele>2106.0</ele>
      </trkpt>
      <trkpt lat="42.597138" lon="1.701565">
        <time>1970-01-01T00:00:00+00:00</time>
        <ele>2108.0</ele>
      </trkpt>
      <trkpt lat="42.597106" lon="1.701709">
        <time>1970-01-01T00:00:00+00:00</time>
        <ele>2110.0</ele>
      </trkpt>
      <trkpt lat="42.597054" lon="1.701843">
        <time>1970-01-01T00:00:00+00:00</time>
        <ele>2114.0</ele>
      </trkpt>
      <trkpt lat="42.597058" lon="1.702025">
        <time>1970-01-01T00:00:00+00:00</time>
        <ele>2115.0</ele>
      </trkpt>
      <trkpt lat="42.597102" lon="1.702219">
        <time>1970-01-01T00:00:00+00:00</time>
        <ele>2115.0</ele>
      </trkpt>
      <trkpt lat="42.597086" lon="1.702353">
        <time>1970-01-01T00:00:00+00:00</time>
        <ele>2117.0</ele>
      </trkpt>
      <trkpt lat="42.59692" lon="1.702653">
        <time>1970-01-01T00:00:00+00:00</time>
        <ele>2125.0</ele>
      </trkpt>
      <trkpt lat="42.596896" lon="1.702637">
        <time>1970-01-01T00:00:00+00:00</time>
        <ele>2126.0</ele>
      </trkpt>
      <trkpt lat="42.596726" lon="1.702712">
        <time>1970-01-01T00:00:00+00:00</time>
        <ele>2130.0</ele>
      </trkpt>
      <trkpt lat="42.596391" lon="1.702943">
        <time>1970-01-01T00:00:00+00:00</time>
        <ele>2138.0</ele>
      </trkpt>
      <trkpt lat="42.596189" lon="1.703055">
        <time>1970-01-01T00:00:00+00:00</time>
        <ele>2141.0</ele>
      </trkpt>
      <trkpt lat="42.595964" lon="1.703163">
        <time>1970-01-01T00:00:00+00:00</time>
        <ele>2143.0</ele>
      </trkpt>
      <trkpt lat="42.595775" lon="1.703222">
        <time>1970-01-01T00:00:00+00:00</time>
        <ele>2145.0</ele>
      </trkpt>
      <trkpt lat="42.595361" lon="1.703234">
        <time>1970-01-01T00:00:00+00:00</time>
        <ele>2145.0</ele>
      </trkpt>
      <trkpt lat="42.59461" lon="1.703229">
        <time>1970-01-01T00:00:00+00:00</time>
        <ele>2147.0</ele>
      </trkpt>
      <trkpt lat="42.594447" lon="1.703247">
        <time>1970-01-01T00:00:00+00:00</time>
        <ele>2148.0</ele>
      </trkpt>
      <trkpt lat="42.594262" lon="1.703301">
        <time>1970-01-01T00:00:00+00:00</time>
        <ele>2150.0</ele>
      </trkpt>
      <trkpt lat="42.594178" lon="1.703387">
        <time>1970-01-01T00:00:00+00:00</time>
        <ele>2149.0</ele>
      </trkpt>
      <trkpt lat="42.594079" lon="1.70344">
        <time>1970-01-01T00:00:00+00:00</time>
        <ele>2149.0</ele>
      </trkpt>
      <trkpt lat="42.593828" lon="1.70348">
        <time>1970-01-01T00:00:00+00:00</time>
        <ele>2152.0</ele>
      </trkpt>
      <trkpt lat="42.59374" lon="1.703595">
        <time>1970-01-01T00:00:00+00:00</time>
        <ele>2150.0</ele>
      </trkpt>
      <trkpt lat="42.593609" lon="1.703692">
        <time>1970-01-01T00:00:00+00:00</time>
        <ele>2150.0</ele>
      </trkpt>
      <trkpt lat="42.593506" lon="1.703839">
        <time>1970-01-01T00:00:00+00:00</time>
        <ele>2150.0</ele>
      </trkpt>
      <trkpt lat="42.593324" lon="1.703992">
        <time>1970-01-01T00:00:00+00:00</time>
        <ele>2150.0</ele>
      </trkpt>
      <trkpt lat="42.593285" lon="1.704012">
        <time>1970-01-01T00:00:00+00:00</time>
        <ele>2150.0</ele>
      </trkpt>
      <trkpt lat="42.593163" lon="1.703959">
        <time>1970-01-01T00:00:00+00:00</time>
        <ele>2154.0</ele>
      </trkpt>
      <trkpt lat="42.593109" lon="1.703992">
        <time>1970-01-01T00:00:00+00:00</time>
        <ele>2154.0</ele>
      </trkpt>
      <trkpt lat="42.592987" lon="1.703992">
        <time>1970-01-01T00:00:00+00:00</time>
        <ele>2157.0</ele>
      </trkpt>
      <trkpt lat="42.592646" lon="1.704127">
        <time>1970-01-01T00:00:00+00:00</time>
        <ele>2161.0</ele>
      </trkpt>
      <trkpt lat="42.592349" lon="1.704355">
        <time>1970-01-01T00:00:00+00:00</time>
        <ele>2164.0</ele>
      </trkpt>
      <trkpt lat="42.591831" lon="1.704601">
        <time>1970-01-01T00:00:00+00:00</time>
        <ele>2173.0</ele>
      </trkpt>
      <trkpt lat="42.591743" lon="1.704666">
        <time>1970-01-01T00:00:00+00:00</time>
        <ele>2176.0</ele>
      </trkpt>
      <trkpt lat="42.591693" lon="1.704763">
        <time>1970-01-01T00:00:00+00:00</time>
        <ele>2177.0</ele>
      </trkpt>
      <trkpt lat="42.591605" lon="1.704769">
        <time>1970-01-01T00:00:00+00:00</time>
        <ele>2179.0</ele>
      </trkpt>
      <trkpt lat="42.591558" lon="1.704908">
        <time>1970-01-01T00:00:00+00:00</time>
        <ele>2180.0</ele>
      </trkpt>
      <trkpt lat="42.591441" lon="1.704917">
        <time>1970-01-01T00:00:00+00:00</time>
        <ele>2184.0</ele>
      </trkpt>
      <trkpt lat="42.5914" lon="1.704884">
        <time>1970-01-01T00:00:00+00:00</time>
        <ele>2186.0</ele>
      </trkpt>
      <trkpt lat="42.591327" lon="1.704943">
        <time>1970-01-01T00:00:00+00:00</time>
        <ele>2189.0</ele>
      </trkpt>
      <trkpt lat="42.591281" lon="1.704923">
        <time>1970-01-01T00:00:00+00:00</time>
        <ele>2191.0</ele>
      </trkpt>
      <trkpt lat="42.591181" lon="1.704997">
        <time>1970-01-01T00:00:00+00:00</time>
        <ele>2194.0</ele>
      </trkpt>
      <trkpt lat="42.591052" lon="1.705129">
        <time>1970-01-01T00:00:00+00:00</time>
        <ele>2198.0</ele>
      </trkpt>
      <trkpt lat="42.590953" lon="1.705188">
        <time>1970-01-01T00:00:00+00:00</time>
        <ele>2201.0</ele>
      </trkpt>
      <trkpt lat="42.590907" lon="1.705256">
        <time>1970-01-01T00:00:00+00:00</time>
        <ele>2202.0</ele>
      </trkpt>
      <trkpt lat="42.590867" lon="1.705267">
        <time>1970-01-01T00:00:00+00:00</time>
        <ele>2204.0</ele>
      </trkpt>
      <trkpt lat="42.590829" lon="1.705317">
        <time>1970-01-01T00:00:00+00:00</time>
        <ele>2206.0</ele>
      </trkpt>
      <trkpt lat="42.590757" lon="1.705253">
        <time>1970-01-01T00:00:00+00:00</time>
        <ele>2210.0</ele>
      </trkpt>
      <trkpt lat="42.590693" lon="1.705316">
        <time>1970-01-01T00:00:00+00:00</time>
        <ele>2212.0</ele>
      </trkpt>
      <trkpt lat="42.590498" lon="1.705303">
        <time>1970-01-01T00:00:00+00:00</time>
        <ele>2222.0</ele>
      </trkpt>
      <trkpt lat="42.590384" lon="1.705391">
        <time>1970-01-01T00:00:00+00:00</time>
        <ele>2225.0</ele>
      </trkpt>
      <trkpt lat="42.590314" lon="1.705364">
        <time>1970-01-01T00:00:00+00:00</time>
        <ele>2227.0</ele>
      </trkpt>
      <trkpt lat="42.590294" lon="1.705276">
        <time>1970-01-01T00:00:00+00:00</time>
        <ele>2229.0</ele>
      </trkpt>
      <trkpt lat="42.590171" lon="1.705217">
        <time>1970-01-01T00:00:00+00:00</time>
        <ele>2232.0</ele>
      </trkpt>
      <trkpt lat="42.590068" lon="1.705122">
        <time>1970-01-01T00:00:00+00:00</time>
        <ele>2235.0</ele>
      </trkpt>
      <trkpt lat="42.590027" lon="1.705019">
        <time>1970-01-01T00:00:00+00:00</time>
        <ele>2238.0</ele>
      </trkpt>
      <trkpt lat="42.590005" lon="1.705004">
        <time>1970-01-01T00:00:00+00:00</time>
        <ele>2239.0</ele>
      </trkpt>
      <trkpt lat="42.589897" lon="1.704915">
        <time>1970-01-01T00:00:00+00:00</time>
        <ele>2242.0</ele>
      </trkpt>
      <trkpt lat="42.589832" lon="1.704793">
        <time>1970-01-01T00:00:00+00:00</time>
        <ele>2246.0</ele>
      </trkpt>
      <trkpt lat="42.589768" lon="1.704783">
        <time>1970-01-01T00:00:00+00:00</time>
        <ele>2248.0</ele>
      </trkpt>
      <trkpt lat="42.589625" lon="1.704685">
        <time>1970-01-01T00:00:00+00:00</time>
        <ele>2254.0</ele>
      </trkpt>
      <trkpt lat="42.589569" lon="1.704685">
        <time>1970-01-01T00:00:00+00:00</time>
        <ele>2256.0</ele>
      </trkpt>
      <trkpt lat="42.589328" lon="1.70452">
        <time>1970-01-01T00:00:00+00:00</time>
        <ele>2273.0</ele>
      </trkpt>
      <trkpt lat="42.589283" lon="1.704356">
        <time>1970-01-01T00:00:00+00:00</time>
        <ele>2286.0</ele>
      </trkpt>
      <trkpt lat="42.589135" lon="1.704209">
        <time>1970-01-01T00:00:00+00:00</time>
        <ele>2308.0</ele>
      </trkpt>
      <trkpt lat="42.588712" lon="1.704031">
        <time>1970-01-01T00:00:00+00:00</time>
        <ele>2338.0</ele>
      </trkpt>
      <trkpt lat="42.588563" lon="1.704064">
        <time>1970-01-01T00:00:00+00:00</time>
        <ele>2336.0</ele>
      </trkpt>
      <trkpt lat="42.588448" lon="1.704067">
        <time>1970-01-01T00:00:00+00:00</time>
        <ele>2334.0</ele>
      </trkpt>
      <trkpt lat="42.58829" lon="1.704146">
        <time>1970-01-01T00:00:00+00:00</time>
        <ele>2330.0</ele>
      </trkpt>
      <trkpt lat="42.588256" lon="1.704272">
        <time>1970-01-01T00:00:00+00:00</time>
        <ele>2328.0</ele>
      </trkpt>
      <trkpt lat="42.588008" lon="1.704581">
        <time>1970-01-01T00:00:00+00:00</time>
        <ele>2325.0</ele>
      </trkpt>
      <trkpt lat="42.587945" lon="1.704858">
        <time>1970-01-01T00:00:00+00:00</time>
        <ele>2327.0</ele>
      </trkpt>
      <trkpt lat="42.587947" lon="1.704949">
        <time>1970-01-01T00:00:00+00:00</time>
        <ele>2328.0</ele>
      </trkpt>
      <trkpt lat="42.587853" lon="1.705137">
        <time>1970-01-01T00:00:00+00:00</time>
        <ele>2327.0</ele>
      </trkpt>
      <trkpt lat="42.587769" lon="1.705418">
        <time>1970-01-01T00:00:00+00:00</time>
        <ele>2328.0</ele>
      </trkpt>
      <trkpt lat="42.587773" lon="1.70559">
        <time>1970-01-01T00:00:00+00:00</time>
        <ele>2331.0</ele>
      </trkpt>
      <trkpt lat="42.587718" lon="1.705729">
        <time>1970-01-01T00:00:00+00:00</time>
        <ele>2332.0</ele>
      </trkpt>
      <trkpt lat="42.587607" lon="1.706499">
        <time>1970-01-01T00:00:00+00:00</time>
        <ele>2346.0</ele>
      </trkpt>
      <trkpt lat="42.587568" lon="1.707213">
        <time>1970-01-01T00:00:00+00:00</time>
        <ele>2359.0</ele>
      </trkpt>
      <trkpt lat="42.587459" lon="1.70776">
        <time>1970-01-01T00:00:00+00:00</time>
        <ele>2370.0</ele>
      </trkpt>
      <trkpt lat="42.587394" lon="1.708251">
        <time>1970-01-01T00:00:00+00:00</time>
        <ele>2376.0</ele>
      </trkpt>
      <trkpt lat="42.587432" lon="1.708544">
        <time>1970-01-01T00:00:00+00:00</time>
        <ele>2376.0</ele>
      </trkpt>
      <trkpt lat="42.587373" lon="1.708722">
        <time>1970-01-01T00:00:00+00:00</time>
        <ele>2377.0</ele>
      </trkpt>
      <trkpt lat="42.587062" lon="1.709166">
        <time>1970-01-01T00:00:00+00:00</time>
        <ele>2388.0</ele>
      </trkpt>
      <trkpt lat="42.586897" lon="1.709533">
        <time>1970-01-01T00:00:00+00:00</time>
        <ele>2391.0</ele>
      </trkpt>
      <trkpt lat="42.586724" lon="1.709745">
        <time>1970-01-01T00:00:00+00:00</time>
        <ele>2400.0</ele>
      </trkpt>
      <trkpt lat="42.586671" lon="1.709945">
        <time>1970-01-01T00:00:00+00:00</time>
        <ele>2401.0</ele>
      </trkpt>
      <trkpt lat="42.586503" lon="1.710262">
        <time>1970-01-01T00:00:00+00:00</time>
        <ele>2406.0</ele>
      </trkpt>
      <trkpt lat="42.586376" lon="1.710416">
        <time>1970-01-01T00:00:00+00:00</time>
        <ele>2407.0</ele>
      </trkpt>
      <trkpt lat="42.586301" lon="1.710429">
        <time>1970-01-01T00:00:00+00:00</time>
        <ele>2408.0</ele>
      </trkpt>
      <trkpt lat="42.586193" lon="1.710499">
        <time>1970-01-01T00:00:00+00:00</time>
        <ele>2408.0</ele>
      </trkpt>
      <trkpt lat="42.58618" lon="1.710672">
        <time>1970-01-01T00:00:00+00:00</time>
        <ele>2407.0</ele>
      </trkpt>
      <trkpt lat="42.586057" lon="1.711093">
        <time>1970-01-01T00:00:00+00:00</time>
        <ele>2408.0</ele>
      </trkpt>
      <trkpt lat="42.586047" lon="1.711352">
        <time>1970-01-01T00:00:00+00:00</time>
        <ele>2409.0</ele>
      </trkpt>
      <trkpt lat="42.585982" lon="1.711621">
        <time>1970-01-01T00:00:00+00:00</time>
        <ele>2409.0</ele>
      </trkpt>
      <trkpt lat="42.585943" lon="1.712052">
        <time>1970-01-01T00:00:00+00:00</time>
        <ele>2409.0</ele>
      </trkpt>
      <trkpt lat="42.585956" lon="1.71282">
        <time>1970-01-01T00:00:00+00:00</time>
        <ele>2414.0</ele>
      </trkpt>
      <trkpt lat="42.585982" lon="1.713178">
        <time>1970-01-01T00:00:00+00:00</time>
        <ele>2420.0</ele>
      </trkpt>
      <trkpt lat="42.586055" lon="1.713741">
        <time>1970-01-01T00:00:00+00:00</time>
        <ele>2434.0</ele>
      </trkpt>
      <trkpt lat="42.58612" lon="1.713886">
        <time>1970-01-01T00:00:00+00:00</time>
        <ele>2438.0</ele>
      </trkpt>
      <trkpt lat="42.586094" lon="1.714024">
        <time>1970-01-01T00:00:00+00:00</time>
        <ele>2441.0</ele>
      </trkpt>
      <trkpt lat="42.586172" lon="1.714218">
        <time>1970-01-01T00:00:00+00:00</time>
        <ele>2444.0</ele>
      </trkpt>
      <trkpt lat="42.586247" lon="1.714353">
        <time>1970-01-01T00:00:00+00:00</time>
        <ele>2448.0</ele>
      </trkpt>
      <trkpt lat="42.586267" lon="1.714676">
        <time>1970-01-01T00:00:00+00:00</time>
        <ele>2455.0</ele>
      </trkpt>
      <trkpt lat="42.58633" lon="1.714975">
        <time>1970-01-01T00:00:00+00:00</time>
        <ele>2461.0</ele>
      </trkpt>
      <trkpt lat="42.586354" lon="1.715164">
        <time>1970-01-01T00:00:00+00:00</time>
        <ele>2464.0</ele>
      </trkpt>
      <trkpt lat="42.586353" lon="1.715428">
        <time>1970-01-01T00:00:00+00:00</time>
        <ele>2471.0</ele>
      </trkpt>
      <trkpt lat="42.586396" lon="1.715603">
        <time>1970-01-01T00:00:00+00:00</time>
        <ele>2476.0</ele>
      </trkpt>
      <trkpt lat="42.586435" lon="1.715674">
        <time>1970-01-01T00:00:00+00:00</time>
        <ele>2477.0</ele>
      </trkpt>
      <trkpt lat="42.586433" lon="1.715861">
        <time>1970-01-01T00:00:00+00:00</time>
        <ele>2481.0</ele>
      </trkpt>
      <trkpt lat="42.586402" lon="1.716196">
        <time>1970-01-01T00:00:00+00:00</time>
        <ele>2485.0</ele>
      </trkpt>
      <trkpt lat="42.586403" lon="1.71671">
        <time>1970-01-01T00:00:00+00:00</time>
        <ele>2490.0</ele>
      </trkpt>
      <trkpt lat="42.58643" lon="1.716969">
        <time>1970-01-01T00:00:00+00:00</time>
        <ele>2492.0</ele>
      </trkpt>
      <trkpt lat="42.586487" lon="1.717176">
        <time>1970-01-01T00:00:00+00:00</time>
        <ele>2494.0</ele>
      </trkpt>
      <trkpt lat="42.586615" lon="1.717507">
        <time>1970-01-01T00:00:00+00:00</time>
        <ele>2499.0</ele>
      </trkpt>
      <trkpt lat="42.586695" lon="1.717782">
        <time>1970-01-01T00:00:00+00:00</time>
        <ele>2503.0</ele>
      </trkpt>
      <trkpt lat="42.586666" lon="1.717975">
        <time>1970-01-01T00:00:00+00:00</time>
        <ele>2505.0</ele>
      </trkpt>
      <trkpt lat="42.586592" lon="1.718306">
        <time>1970-01-01T00:00:00+00:00</time>
        <ele>2510.0</ele>
      </trkpt>
      <trkpt lat="42.586568" lon="1.71855">
        <time>1970-01-01T00:00:00+00:00</time>
        <ele>2513.0</ele>
      </trkpt>
      <trkpt lat="42.58643" lon="1.718926">
        <time>1970-01-01T00:00:00+00:00</time>
        <ele>2519.0</ele>
      </trkpt>
      <trkpt lat="42.586358" lon="1.719207">
        <time>1970-01-01T00:00:00+00:00</time>
        <ele>2523.0</ele>
      </trkpt>
      <trkpt lat="42.586285" lon="1.719296">
        <time>1970-01-01T00:00:00+00:00</time>
        <ele>2526.0</ele>
      </trkpt>
      <trkpt lat="42.586134" lon="1.719357">
        <time>1970-01-01T00:00:00+00:00</time>
        <ele>2530.0</ele>
      </trkpt>
      <trkpt lat="42.586066" lon="1.71943">
        <time>1970-01-01T00:00:00+00:00</time>
        <ele>2533.0</ele>
      </trkpt>
      <trkpt lat="42.586012" lon="1.719544">
        <time>1970-01-01T00:00:00+00:00</time>
        <ele>2536.0</ele>
      </trkpt>
      <trkpt lat="42.585927" lon="1.719605">
        <time>1970-01-01T00:00:00+00:00</time>
        <ele>2540.0</ele>
      </trkpt>
      <trkpt lat="42.585869" lon="1.719611">
        <time>1970-01-01T00:00:00+00:00</time>
        <ele>2543.0</ele>
      </trkpt>
      <trkpt lat="42.585818" lon="1.719591">
        <time>1970-01-01T00:00:00+00:00</time>
        <ele>2545.0</ele>
      </trkpt>
      <trkpt lat="42.58577" lon="1.719528">
        <time>1970-01-01T00:00:00+00:00</time>
        <ele>2547.0</ele>
      </trkpt>
      <trkpt lat="42.585734" lon="1.719593">
        <time>1970-01-01T00:00:00+00:00</time>
        <ele>2549.0</ele>
      </trkpt>
      <trkpt lat="42.585677" lon="1.719623">
        <time>1970-01-01T00:00:00+00:00</time>
        <ele>2552.0</ele>
      </trkpt>
      <trkpt lat="42.585619" lon="1.719629">
        <time>1970-01-01T00:00:00+00:00</time>
        <ele>2555.0</ele>
      </trkpt>
      <trkpt lat="42.585568" lon="1.719603">
        <time>1970-01-01T00:00:00+00:00</time>
        <ele>2557.0</ele>
      </trkpt>
      <trkpt lat="42.58552" lon="1.719621">
        <time>1970-01-01T00:00:00+00:00</time>
        <ele>2559.0</ele>
      </trkpt>
      <trkpt lat="42.585477" lon="1.719597">
        <time>1970-01-01T00:00:00+00:00</time>
        <ele>2561.0</ele>
      </trkpt>
      <trkpt lat="42.585424" lon="1.719676">
        <time>1970-01-01T00:00:00+00:00</time>
        <ele>2563.0</ele>
      </trkpt>
      <trkpt lat="42.585385" lon="1.71982">
        <time>1970-01-01T00:00:00+00:00</time>
        <ele>2566.0</ele>
      </trkpt>
      <trkpt lat="42.585339" lon="1.719831">
        <time>1970-01-01T00:00:00+00:00</time>
        <ele>2569.0</ele>
      </trkpt>
      <trkpt lat="42.585316" lon="1.719973">
        <time>1970-01-01T00:00:00+00:00</time>
        <ele>2572.0</ele>
      </trkpt>
      <trkpt lat="42.585266" lon="1.72015">
        <time>1970-01-01T00:00:00+00:00</time>
        <ele>2581.0</ele>
      </trkpt>
      <trkpt lat="42.585381" lon="1.720432">
        <time>1970-01-01T00:00:00+00:00</time>
        <ele>2583.0</ele>
      </trkpt>
      <trkpt lat="42.585444" lon="1.720493">
        <time>1970-01-01T00:00:00+00:00</time>
        <ele>2584.0</ele>
      </trkpt>
      <trkpt lat="42.585539" lon="1.720668">
        <time>1970-01-01T00:00:00+00:00</time>
        <ele>2591.0</ele>
      </trkpt>
      <trkpt lat="42.585607" lon="1.720715">
        <time>1970-01-01T00:00:00+00:00</time>
        <ele>2592.0</ele>
      </trkpt>
      <trkpt lat="42.585644" lon="1.720902">
        <time>1970-01-01T00:00:00+00:00</time>
        <ele>2600.0</ele>
      </trkpt>
      <trkpt lat="42.585699" lon="1.721006">
        <time>1970-01-01T00:00:00+00:00</time>
        <ele>2603.0</ele>
      </trkpt>
      <trkpt lat="42.585771" lon="1.721079">
        <time>1970-01-01T00:00:00+00:00</time>
        <ele>2605.0</ele>
      </trkpt>
      <trkpt lat="42.585857" lon="1.721215">
        <time>1970-01-01T00:00:00+00:00</time>
        <ele>2610.0</ele>
      </trkpt>
      <trkpt lat="42.585908" lon="1.721359">
        <time>1970-01-01T00:00:00+00:00</time>
        <ele>2615.0</ele>
      </trkpt>
      <trkpt lat="42.586053" lon="1.721593">
        <time>1970-01-01T00:00:00+00:00</time>
        <ele>2628.0</ele>
      </trkpt>
      <trkpt lat="42.58611" lon="1.72176">
        <time>1970-01-01T00:00:00+00:00</time>
        <ele>2637.0</ele>
      </trkpt>
      <trkpt lat="42.586261" lon="1.722079">
        <time>1970-01-01T00:00:00+00:00</time>
        <ele>2656.0</ele>
      </trkpt>
      <trkpt lat="42.586397" lon="1.722294">
        <time>1970-01-01T00:00:00+00:00</time>
        <ele>2668.0</ele>
      </trkpt>
      <trkpt lat="42.586425" lon="1.722404">
        <time>1970-01-01T00:00:00+00:00</time>
        <ele>2673.0</ele>
      </trkpt>
      <trkpt lat="42.586452" lon="1.722554">
        <time>1970-01-01T00:00:00+00:00</time>
        <ele>2678.0</ele>
      </trkpt>
      <trkpt lat="42.586361" lon="1.722849">
        <time>1970-01-01T00:00:00+00:00</time>
        <ele>2686.0</ele>
      </trkpt>
      <trkpt lat="42.586331" lon="1.72305">
        <time>1970-01-01T00:00:00+00:00</time>
        <ele>2692.0</ele>
      </trkpt>
      <trkpt lat="42.586476" lon="1.723612">
        <time>1970-01-01T00:00:00+00:00</time>
        <ele>2710.0</ele>
      </trkpt>
      <trkpt lat="42.586476" lon="1.72379">
        <time>1970-01-01T00:00:00+00:00</time>
        <ele>2715.0</ele>
      </trkpt>
      <trkpt lat="42.586427" lon="1.723975">
        <time>1970-01-01T00:00:00+00:00</time>
        <ele>2720.0</ele>
      </trkpt>
      <trkpt lat="42.586309" lon="1.724209">
        <time>1970-01-01T00:00:00+00:00</time>
        <ele>2725.0</ele>
      </trkpt>
      <trkpt lat="42.586262" lon="1.72475">
        <time>1970-01-01T00:00:00+00:00</time>
        <ele>2739.0</ele>
      </trkpt>
      <trkpt lat="42.586306" lon="1.725099">
        <time>1970-01-01T00:00:00+00:00</time>
        <ele>2747.0</ele>
      </trkpt>
      <trkpt lat="42.586533" lon="1.725636">
        <time>1970-01-01T00:00:00+00:00</time>
        <ele>2760.0</ele>
      </trkpt>
      <trkpt lat="42.586566" lon="1.7258">
        <time>1970-01-01T00:00:00+00:00</time>
        <ele>2762.0</ele>
      </trkpt>
      <trkpt lat="42.58662" lon="1.725903">
        <time>1970-01-01T00:00:00+00:00</time>
        <ele>2764.0</ele>
      </trkpt>
      <trkpt lat="42.586657" lon="1.726048">
        <time>1970-01-01T00:00:00+00:00</time>
        <ele>2766.0</ele>
      </trkpt>
      <trkpt lat="42.586687" lon="1.726284">
        <time>1970-01-01T00:00:00+00:00</time>
        <ele>2767.0</ele>
      </trkpt>
      <trkpt lat="42.586743" lon="1.726369">
        <time>1970-01-01T00:00:00+00:00</time>
        <ele>2767.0</ele>
      </trkpt>
      <trkpt lat="42.58718" lon="1.726636">
        <time>1970-01-01T00:00:00+00:00</time>
        <ele>2777.0</ele>
      </trkpt>
      <trkpt lat="42.587569" lon="1.726954">
        <time>1970-01-01T00:00:00+00:00</time>
        <ele>2789.0</ele>
      </trkpt>
      <trkpt lat="42.587751" lon="1.727039">
        <time>1970-01-01T00:00:00+00:00</time>
        <ele>2795.0</ele>
      </trkpt>
      <trkpt lat="42.587912" lon="1.727175">
        <time>1970-01-01T00:00:00+00:00</time>
        <ele>2800.0</ele>
      </trkpt>
      <trkpt lat="42.588202" lon="1.727331">
        <time>1970-01-01T00:00:00+00:00</time>
        <ele>2809.0</ele>
      </trkpt>
      <trkpt lat="42.588416" lon="1.727482">
        <time>1970-01-01T00:00:00+00:00</time>
        <ele>2813.0</ele>
      </trkpt>
      <trkpt lat="42.588784" lon="1.727023">
        <time>1970-01-01T00:00:00+00:00</time>
        <ele>2812.0</ele>
      </trkpt>
      <trkpt lat="42.588953" lon="1.726848">
        <time>1970-01-01T00:00:00+00:00</time>
        <ele>2812.0</ele>
      </trkpt>
      <trkpt lat="42.589052" lon="1.726774">
        <time>1970-01-01T00:00:00+00:00</time>
        <ele>2811.0</ele>
      </trkpt>
      <trkpt lat="42.589052" lon="1.726774">
        <time>1970-01-01T00:00:00+00:00</time>
        <ele>2811.0</ele>
      </trkpt>
      <trkpt lat="42.588953" lon="1.726848">
        <time>1970-01-01T00:00:00+00:00</time>
        <ele>2812.0</ele>
      </trkpt>
      <trkpt lat="42.588784" lon="1.727023">
        <time>1970-01-01T00:00:00+00:00</time>
        <ele>2812.0</ele>
      </trkpt>
      <trkpt lat="42.588416" lon="1.727482">
        <time>1970-01-01T00:00:00+00:00</time>
        <ele>2813.0</ele>
      </trkpt>
      <trkpt lat="42.588202" lon="1.727331">
        <time>1970-01-01T00:00:00+00:00</time>
        <ele>2809.0</ele>
      </trkpt>
      <trkpt lat="42.587912" lon="1.727175">
        <time>1970-01-01T00:00:00+00:00</time>
        <ele>2800.0</ele>
      </trkpt>
      <trkpt lat="42.587751" lon="1.727039">
        <time>1970-01-01T00:00:00+00:00</time>
        <ele>2795.0</ele>
      </trkpt>
      <trkpt lat="42.587569" lon="1.726954">
        <time>1970-01-01T00:00:00+00:00</time>
        <ele>2789.0</ele>
      </trkpt>
      <trkpt lat="42.58718" lon="1.726636">
        <time>1970-01-01T00:00:00+00:00</time>
        <ele>2777.0</ele>
      </trkpt>
      <trkpt lat="42.586743" lon="1.726369">
        <time>1970-01-01T00:00:00+00:00</time>
        <ele>2767.0</ele>
      </trkpt>
      <trkpt lat="42.586687" lon="1.726284">
        <time>1970-01-01T00:00:00+00:00</time>
        <ele>2767.0</ele>
      </trkpt>
      <trkpt lat="42.586657" lon="1.726048">
        <time>1970-01-01T00:00:00+00:00</time>
        <ele>2766.0</ele>
      </trkpt>
      <trkpt lat="42.58662" lon="1.725903">
        <time>1970-01-01T00:00:00+00:00</time>
        <ele>2764.0</ele>
      </trkpt>
      <trkpt lat="42.586566" lon="1.7258">
        <time>1970-01-01T00:00:00+00:00</time>
        <ele>2762.0</ele>
      </trkpt>
      <trkpt lat="42.586533" lon="1.725636">
        <time>1970-01-01T00:00:00+00:00</time>
        <ele>2760.0</ele>
      </trkpt>
      <trkpt lat="42.586306" lon="1.725099">
        <time>1970-01-01T00:00:00+00:00</time>
        <ele>2747.0</ele>
      </trkpt>
      <trkpt lat="42.586262" lon="1.72475">
        <time>1970-01-01T00:00:00+00:00</time>
        <ele>2739.0</ele>
      </trkpt>
      <trkpt lat="42.586309" lon="1.724209">
        <time>1970-01-01T00:00:00+00:00</time>
        <ele>2725.0</ele>
      </trkpt>
      <trkpt lat="42.586427" lon="1.723975">
        <time>1970-01-01T00:00:00+00:00</time>
        <ele>2720.0</ele>
      </trkpt>
      <trkpt lat="42.586476" lon="1.72379">
        <time>1970-01-01T00:00:00+00:00</time>
        <ele>2715.0</ele>
      </trkpt>
      <trkpt lat="42.586476" lon="1.723612">
        <time>1970-01-01T00:00:00+00:00</time>
        <ele>2710.0</ele>
      </trkpt>
      <trkpt lat="42.586331" lon="1.72305">
        <time>1970-01-01T00:00:00+00:00</time>
        <ele>2692.0</ele>
      </trkpt>
      <trkpt lat="42.586361" lon="1.722849">
        <time>1970-01-01T00:00:00+00:00</time>
        <ele>2686.0</ele>
      </trkpt>
      <trkpt lat="42.586452" lon="1.722554">
        <time>1970-01-01T00:00:00+00:00</time>
        <ele>2678.0</ele>
      </trkpt>
      <trkpt lat="42.586425" lon="1.722404">
        <time>1970-01-01T00:00:00+00:00</time>
        <ele>2673.0</ele>
      </trkpt>
      <trkpt lat="42.586397" lon="1.722294">
        <time>1970-01-01T00:00:00+00:00</time>
        <ele>2668.0</ele>
      </trkpt>
      <trkpt lat="42.586261" lon="1.722079">
        <time>1970-01-01T00:00:00+00:00</time>
        <ele>2656.0</ele>
      </trkpt>
      <trkpt lat="42.58611" lon="1.72176">
        <time>1970-01-01T00:00:00+00:00</time>
        <ele>2637.0</ele>
      </trkpt>
      <trkpt lat="42.586053" lon="1.721593">
        <time>1970-01-01T00:00:00+00:00</time>
        <ele>2628.0</ele>
      </trkpt>
      <trkpt lat="42.585908" lon="1.721359">
        <time>1970-01-01T00:00:00+00:00</time>
        <ele>2615.0</ele>
      </trkpt>
      <trkpt lat="42.585857" lon="1.721215">
        <time>1970-01-01T00:00:00+00:00</time>
        <ele>2610.0</ele>
      </trkpt>
      <trkpt lat="42.585771" lon="1.721079">
        <time>1970-01-01T00:00:00+00:00</time>
        <ele>2605.0</ele>
      </trkpt>
      <trkpt lat="42.585699" lon="1.721006">
        <time>1970-01-01T00:00:00+00:00</time>
        <ele>2603.0</ele>
      </trkpt>
      <trkpt lat="42.585644" lon="1.720902">
        <time>1970-01-01T00:00:00+00:00</time>
        <ele>2600.0</ele>
      </trkpt>
      <trkpt lat="42.585607" lon="1.720715">
        <time>1970-01-01T00:00:00+00:00</time>
        <ele>2592.0</ele>
      </trkpt>
      <trkpt lat="42.585539" lon="1.720668">
        <time>1970-01-01T00:00:00+00:00</time>
        <ele>2591.0</ele>
      </trkpt>
      <trkpt lat="42.585444" lon="1.720493">
        <time>1970-01-01T00:00:00+00:00</time>
        <ele>2584.0</ele>
      </trkpt>
      <trkpt lat="42.585381" lon="1.720432">
        <time>1970-01-01T00:00:00+00:00</time>
        <ele>2583.0</ele>
      </trkpt>
      <trkpt lat="42.585266" lon="1.72015">
        <time>1970-01-01T00:00:00+00:00</time>
        <ele>2581.0</ele>
      </trkpt>
      <trkpt lat="42.585316" lon="1.719973">
        <time>1970-01-01T00:00:00+00:00</time>
        <ele>2572.0</ele>
      </trkpt>
      <trkpt lat="42.585339" lon="1.719831">
        <time>1970-01-01T00:00:00+00:00</time>
        <ele>2569.0</ele>
      </trkpt>
      <trkpt lat="42.585385" lon="1.71982">
        <time>1970-01-01T00:00:00+00:00</time>
        <ele>2566.0</ele>
      </trkpt>
      <trkpt lat="42.585424" lon="1.719676">
        <time>1970-01-01T00:00:00+00:00</time>
        <ele>2563.0</ele>
      </trkpt>
      <trkpt lat="42.585477" lon="1.719597">
        <time>1970-01-01T00:00:00+00:00</time>
        <ele>2561.0</ele>
      </trkpt>
      <trkpt lat="42.58552" lon="1.719621">
        <time>1970-01-01T00:00:00+00:00</time>
        <ele>2559.0</ele>
      </trkpt>
      <trkpt lat="42.585568" lon="1.719603">
        <time>1970-01-01T00:00:00+00:00</time>
        <ele>2557.0</ele>
      </trkpt>
      <trkpt lat="42.585619" lon="1.719629">
        <time>1970-01-01T00:00:00+00:00</time>
        <ele>2555.0</ele>
      </trkpt>
      <trkpt lat="42.585677" lon="1.719623">
        <time>1970-01-01T00:00:00+00:00</time>
        <ele>2552.0</ele>
      </trkpt>
      <trkpt lat="42.585734" lon="1.719593">
        <time>1970-01-01T00:00:00+00:00</time>
        <ele>2549.0</ele>
      </trkpt>
      <trkpt lat="42.58577" lon="1.719528">
        <time>1970-01-01T00:00:00+00:00</time>
        <ele>2547.0</ele>
      </trkpt>
      <trkpt lat="42.585818" lon="1.719591">
        <time>1970-01-01T00:00:00+00:00</time>
        <ele>2545.0</ele>
      </trkpt>
      <trkpt lat="42.585869" lon="1.719611">
        <time>1970-01-01T00:00:00+00:00</time>
        <ele>2543.0</ele>
      </trkpt>
      <trkpt lat="42.585927" lon="1.719605">
        <time>1970-01-01T00:00:00+00:00</time>
        <ele>2540.0</ele>
      </trkpt>
      <trkpt lat="42.586012" lon="1.719544">
        <time>1970-01-01T00:00:00+00:00</time>
        <ele>2536.0</ele>
      </trkpt>
      <trkpt lat="42.586066" lon="1.71943">
        <time>1970-01-01T00:00:00+00:00</time>
        <ele>2533.0</ele>
      </trkpt>
      <trkpt lat="42.586134" lon="1.719357">
        <time>1970-01-01T00:00:00+00:00</time>
        <ele>2530.0</ele>
      </trkpt>
      <trkpt lat="42.586285" lon="1.719296">
        <time>1970-01-01T00:00:00+00:00</time>
        <ele>2526.0</ele>
      </trkpt>
      <trkpt lat="42.586358" lon="1.719207">
        <time>1970-01-01T00:00:00+00:00</time>
        <ele>2523.0</ele>
      </trkpt>
      <trkpt lat="42.58643" lon="1.718926">
        <time>1970-01-01T00:00:00+00:00</time>
        <ele>2519.0</ele>
      </trkpt>
      <trkpt lat="42.586568" lon="1.71855">
        <time>1970-01-01T00:00:00+00:00</time>
        <ele>2513.0</ele>
      </trkpt>
      <trkpt lat="42.586592" lon="1.718306">
        <time>1970-01-01T00:00:00+00:00</time>
        <ele>2510.0</ele>
      </trkpt>
      <trkpt lat="42.586666" lon="1.717975">
        <time>1970-01-01T00:00:00+00:00</time>
        <ele>2505.0</ele>
      </trkpt>
      <trkpt lat="42.586695" lon="1.717782">
        <time>1970-01-01T00:00:00+00:00</time>
        <ele>2503.0</ele>
      </trkpt>
      <trkpt lat="42.586615" lon="1.717507">
        <time>1970-01-01T00:00:00+00:00</time>
        <ele>2499.0</ele>
      </trkpt>
      <trkpt lat="42.586487" lon="1.717176">
        <time>1970-01-01T00:00:00+00:00</time>
        <ele>2494.0</ele>
      </trkpt>
      <trkpt lat="42.58643" lon="1.716969">
        <time>1970-01-01T00:00:00+00:00</time>
        <ele>2492.0</ele>
      </trkpt>
      <trkpt lat="42.586403" lon="1.71671">
        <time>1970-01-01T00:00:00+00:00</time>
        <ele>2490.0</ele>
      </trkpt>
      <trkpt lat="42.586402" lon="1.716196">
        <time>1970-01-01T00:00:00+00:00</time>
        <ele>2485.0</ele>
      </trkpt>
      <trkpt lat="42.586433" lon="1.715861">
        <time>1970-01-01T00:00:00+00:00</time>
        <ele>2481.0</ele>
      </trkpt>
      <trkpt lat="42.586435" lon="1.715674">
        <time>1970-01-01T00:00:00+00:00</time>
        <ele>2477.0</ele>
      </trkpt>
      <trkpt lat="42.586396" lon="1.715603">
        <time>1970-01-01T00:00:00+00:00</time>
        <ele>2476.0</ele>
      </trkpt>
      <trkpt lat="42.586353" lon="1.715428">
        <time>1970-01-01T00:00:00+00:00</time>
        <ele>2471.0</ele>
      </trkpt>
      <trkpt lat="42.586354" lon="1.715164">
        <time>1970-01-01T00:00:00+00:00</time>
        <ele>2464.0</ele>
      </trkpt>
      <trkpt lat="42.58633" lon="1.714975">
        <time>1970-01-01T00:00:00+00:00</time>
        <ele>2461.0</ele>
      </trkpt>
      <trkpt lat="42.586267" lon="1.714676">
        <time>1970-01-01T00:00:00+00:00</time>
        <ele>2455.0</ele>
      </trkpt>
      <trkpt lat="42.586247" lon="1.714353">
        <time>1970-01-01T00:00:00+00:00</time>
        <ele>2448.0</ele>
      </trkpt>
      <trkpt lat="42.586172" lon="1.714218">
        <time>1970-01-01T00:00:00+00:00</time>
        <ele>2444.0</ele>
      </trkpt>
      <trkpt lat="42.586094" lon="1.714024">
        <time>1970-01-01T00:00:00+00:00</time>
        <ele>2441.0</ele>
      </trkpt>
      <trkpt lat="42.58612" lon="1.713886">
        <time>1970-01-01T00:00:00+00:00</time>
        <ele>2438.0</ele>
      </trkpt>
      <trkpt lat="42.586055" lon="1.713741">
        <time>1970-01-01T00:00:00+00:00</time>
        <ele>2434.0</ele>
      </trkpt>
      <trkpt lat="42.585982" lon="1.713178">
        <time>1970-01-01T00:00:00+00:00</time>
        <ele>2420.0</ele>
      </trkpt>
      <trkpt lat="42.585956" lon="1.71282">
        <time>1970-01-01T00:00:00+00:00</time>
        <ele>2414.0</ele>
      </trkpt>
      <trkpt lat="42.585943" lon="1.712052">
        <time>1970-01-01T00:00:00+00:00</time>
        <ele>2409.0</ele>
      </trkpt>
      <trkpt lat="42.585982" lon="1.711621">
        <time>1970-01-01T00:00:00+00:00</time>
        <ele>2409.0</ele>
      </trkpt>
      <trkpt lat="42.586047" lon="1.711352">
        <time>1970-01-01T00:00:00+00:00</time>
        <ele>2409.0</ele>
      </trkpt>
      <trkpt lat="42.586057" lon="1.711093">
        <time>1970-01-01T00:00:00+00:00</time>
        <ele>2408.0</ele>
      </trkpt>
      <trkpt lat="42.58618" lon="1.710672">
        <time>1970-01-01T00:00:00+00:00</time>
        <ele>2407.0</ele>
      </trkpt>
      <trkpt lat="42.586193" lon="1.710499">
        <time>1970-01-01T00:00:00+00:00</time>
        <ele>2408.0</ele>
      </trkpt>
      <trkpt lat="42.586301" lon="1.710429">
        <time>1970-01-01T00:00:00+00:00</time>
        <ele>2408.0</ele>
      </trkpt>
      <trkpt lat="42.586376" lon="1.710416">
        <time>1970-01-01T00:00:00+00:00</time>
        <ele>2407.0</ele>
      </trkpt>
      <trkpt lat="42.586503" lon="1.710262">
        <time>1970-01-01T00:00:00+00:00</time>
        <ele>2406.0</ele>
      </trkpt>
      <trkpt lat="42.586671" lon="1.709945">
        <time>1970-01-01T00:00:00+00:00</time>
        <ele>2401.0</ele>
      </trkpt>
      <trkpt lat="42.586724" lon="1.709745">
        <time>1970-01-01T00:00:00+00:00</time>
        <ele>2400.0</ele>
      </trkpt>
      <trkpt lat="42.586897" lon="1.709533">
        <time>1970-01-01T00:00:00+00:00</time>
        <ele>2391.0</ele>
      </trkpt>
      <trkpt lat="42.587062" lon="1.709166">
        <time>1970-01-01T00:00:00+00:00</time>
        <ele>2388.0</ele>
      </trkpt>
      <trkpt lat="42.587373" lon="1.708722">
        <time>1970-01-01T00:00:00+00:00</time>
        <ele>2377.0</ele>
      </trkpt>
      <trkpt lat="42.587432" lon="1.708544">
        <time>1970-01-01T00:00:00+00:00</time>
        <ele>2376.0</ele>
      </trkpt>
      <trkpt lat="42.587394" lon="1.708251">
        <time>1970-01-01T00:00:00+00:00</time>
        <ele>2376.0</ele>
      </trkpt>
      <trkpt lat="42.587459" lon="1.70776">
        <time>1970-01-01T00:00:00+00:00</time>
        <ele>2370.0</ele>
      </trkpt>
      <trkpt lat="42.587568" lon="1.707213">
        <time>1970-01-01T00:00:00+00:00</time>
        <ele>2359.0</ele>
      </trkpt>
      <trkpt lat="42.587607" lon="1.706499">
        <time>1970-01-01T00:00:00+00:00</time>
        <ele>2346.0</ele>
      </trkpt>
      <trkpt lat="42.587718" lon="1.705729">
        <time>1970-01-01T00:00:00+00:00</time>
        <ele>2332.0</ele>
      </trkpt>
      <trkpt lat="42.587773" lon="1.70559">
        <time>1970-01-01T00:00:00+00:00</time>
        <ele>2331.0</ele>
      </trkpt>
      <trkpt lat="42.587769" lon="1.705418">
        <time>1970-01-01T00:00:00+00:00</time>
        <ele>2328.0</ele>
      </trkpt>
      <trkpt lat="42.587853" lon="1.705137">
        <time>1970-01-01T00:00:00+00:00</time>
        <ele>2327.0</ele>
      </trkpt>
      <trkpt lat="42.587947" lon="1.704949">
        <time>1970-01-01T00:00:00+00:00</time>
        <ele>2328.0</ele>
      </trkpt>
      <trkpt lat="42.587945" lon="1.704858">
        <time>1970-01-01T00:00:00+00:00</time>
        <ele>2327.0</ele>
      </trkpt>
      <trkpt lat="42.588008" lon="1.704581">
        <time>1970-01-01T00:00:00+00:00</time>
        <ele>2325.0</ele>
      </trkpt>
      <trkpt lat="42.588256" lon="1.704272">
        <time>1970-01-01T00:00:00+00:00</time>
        <ele>2328.0</ele>
      </trkpt>
      <trkpt lat="42.58829" lon="1.704146">
        <time>1970-01-01T00:00:00+00:00</time>
        <ele>2330.0</ele>
      </trkpt>
      <trkpt lat="42.588448" lon="1.704067">
        <time>1970-01-01T00:00:00+00:00</time>
        <ele>2334.0</ele>
      </trkpt>
      <trkpt lat="42.588563" lon="1.704064">
        <time>1970-01-01T00:00:00+00:00</time>
        <ele>2336.0</ele>
      </trkpt>
      <trkpt lat="42.588712" lon="1.704031">
        <time>1970-01-01T00:00:00+00:00</time>
        <ele>2338.0</ele>
      </trkpt>
      <trkpt lat="42.589135" lon="1.704209">
        <time>1970-01-01T00:00:00+00:00</time>
        <ele>2308.0</ele>
      </trkpt>
      <trkpt lat="42.589283" lon="1.704356">
        <time>1970-01-01T00:00:00+00:00</time>
        <ele>2286.0</ele>
      </trkpt>
      <trkpt lat="42.589328" lon="1.70452">
        <time>1970-01-01T00:00:00+00:00</time>
        <ele>2273.0</ele>
      </trkpt>
      <trkpt lat="42.589569" lon="1.704685">
        <time>1970-01-01T00:00:00+00:00</time>
        <ele>2256.0</ele>
      </trkpt>
      <trkpt lat="42.589625" lon="1.704685">
        <time>1970-01-01T00:00:00+00:00</time>
        <ele>2254.0</ele>
      </trkpt>
      <trkpt lat="42.589768" lon="1.704783">
        <time>1970-01-01T00:00:00+00:00</time>
        <ele>2248.0</ele>
      </trkpt>
      <trkpt lat="42.589832" lon="1.704793">
        <time>1970-01-01T00:00:00+00:00</time>
        <ele>2246.0</ele>
      </trkpt>
      <trkpt lat="42.589897" lon="1.704915">
        <time>1970-01-01T00:00:00+00:00</time>
        <ele>2242.0</ele>
      </trkpt>
      <trkpt lat="42.590005" lon="1.705004">
        <time>1970-01-01T00:00:00+00:00</time>
        <ele>2239.0</ele>
      </trkpt>
      <trkpt lat="42.590027" lon="1.705019">
        <time>1970-01-01T00:00:00+00:00</time>
        <ele>2238.0</ele>
      </trkpt>
      <trkpt lat="42.590068" lon="1.705122">
        <time>1970-01-01T00:00:00+00:00</time>
        <ele>2235.0</ele>
      </trkpt>
      <trkpt lat="42.590171" lon="1.705217">
        <time>1970-01-01T00:00:00+00:00</time>
        <ele>2232.0</ele>
      </trkpt>
      <trkpt lat="42.590294" lon="1.705276">
        <time>1970-01-01T00:00:00+00:00</time>
        <ele>2229.0</ele>
      </trkpt>
      <trkpt lat="42.590314" lon="1.705364">
        <time>1970-01-01T00:00:00+00:00</time>
        <ele>2227.0</ele>
      </trkpt>
      <trkpt lat="42.590384" lon="1.705391">
        <time>1970-01-01T00:00:00+00:00</time>
        <ele>2225.0</ele>
      </trkpt>
      <trkpt lat="42.590498" lon="1.705303">
        <time>1970-01-01T00:00:00+00:00</time>
        <ele>2222.0</ele>
      </trkpt>
      <trkpt lat="42.590693" lon="1.705316">
        <time>1970-01-01T00:00:00+00:00</time>
        <ele>2212.0</ele>
      </trkpt>
      <trkpt lat="42.590757" lon="1.705253">
        <time>1970-01-01T00:00:00+00:00</time>
        <ele>2210.0</ele>
      </trkpt>
      <trkpt lat="42.590829" lon="1.705317">
        <time>1970-01-01T00:00:00+00:00</time>
        <ele>2206.0</ele>
      </trkpt>
      <trkpt lat="42.590867" lon="1.705267">
        <time>1970-01-01T00:00:00+00:00</time>
        <ele>2204.0</ele>
      </trkpt>
      <trkpt lat="42.590907" lon="1.705256">
        <time>1970-01-01T00:00:00+00:00</time>
        <ele>2202.0</ele>
      </trkpt>
      <trkpt lat="42.590953" lon="1.705188">
        <time>1970-01-01T00:00:00+00:00</time>
        <ele>2201.0</ele>
      </trkpt>
      <trkpt lat="42.591052" lon="1.705129">
        <time>1970-01-01T00:00:00+00:00</time>
        <ele>2198.0</ele>
      </trkpt>
      <trkpt lat="42.591181" lon="1.704997">
        <time>1970-01-01T00:00:00+00:00</time>
        <ele>2194.0</ele>
      </trkpt>
      <trkpt lat="42.591281" lon="1.704923">
        <time>1970-01-01T00:00:00+00:00</time>
        <ele>2191.0</ele>
      </trkpt>
      <trkpt lat="42.591327" lon="1.704943">
        <time>1970-01-01T00:00:00+00:00</time>
        <ele>2189.0</ele>
      </trkpt>
      <trkpt lat="42.5914" lon="1.704884">
        <time>1970-01-01T00:00:00+00:00</time>
        <ele>2186.0</ele>
      </trkpt>
      <trkpt lat="42.591441" lon="1.704917">
        <time>1970-01-01T00:00:00+00:00</time>
        <ele>2184.0</ele>
      </trkpt>
      <trkpt lat="42.591558" lon="1.704908">
        <time>1970-01-01T00:00:00+00:00</time>
        <ele>2180.0</ele>
      </trkpt>
      <trkpt lat="42.591605" lon="1.704769">
        <time>1970-01-01T00:00:00+00:00</time>
        <ele>2179.0</ele>
      </trkpt>
      <trkpt lat="42.591693" lon="1.704763">
        <time>1970-01-01T00:00:00+00:00</time>
        <ele>2177.0</ele>
      </trkpt>
      <trkpt lat="42.591743" lon="1.704666">
        <time>1970-01-01T00:00:00+00:00</time>
        <ele>2176.0</ele>
      </trkpt>
      <trkpt lat="42.591831" lon="1.704601">
        <time>1970-01-01T00:00:00+00:00</time>
        <ele>2173.0</ele>
      </trkpt>
      <trkpt lat="42.592349" lon="1.704355">
        <time>1970-01-01T00:00:00+00:00</time>
        <ele>2164.0</ele>
      </trkpt>
      <trkpt lat="42.592646" lon="1.704127">
        <time>1970-01-01T00:00:00+00:00</time>
        <ele>2161.0</ele>
      </trkpt>
      <trkpt lat="42.592987" lon="1.703992">
        <time>1970-01-01T00:00:00+00:00</time>
        <ele>2157.0</ele>
      </trkpt>
      <trkpt lat="42.593109" lon="1.703992">
        <time>1970-01-01T00:00:00+00:00</time>
        <ele>2154.0</ele>
      </trkpt>
      <trkpt lat="42.593163" lon="1.703959">
        <time>1970-01-01T00:00:00+00:00</time>
        <ele>2154.0</ele>
      </trkpt>
      <trkpt lat="42.593285" lon="1.704012">
        <time>1970-01-01T00:00:00+00:00</time>
        <ele>2150.0</ele>
      </trkpt>
      <trkpt lat="42.593324" lon="1.703992">
        <time>1970-01-01T00:00:00+00:00</time>
        <ele>2150.0</ele>
      </trkpt>
      <trkpt lat="42.593506" lon="1.703839">
        <time>1970-01-01T00:00:00+00:00</time>
        <ele>2150.0</ele>
      </trkpt>
      <trkpt lat="42.593609" lon="1.703692">
        <time>1970-01-01T00:00:00+00:00</time>
        <ele>2150.0</ele>
      </trkpt>
      <trkpt lat="42.59374" lon="1.703595">
        <time>1970-01-01T00:00:00+00:00</time>
        <ele>2150.0</ele>
      </trkpt>
      <trkpt lat="42.593828" lon="1.70348">
        <time>1970-01-01T00:00:00+00:00</time>
        <ele>2152.0</ele>
      </trkpt>
      <trkpt lat="42.594079" lon="1.70344">
        <time>1970-01-01T00:00:00+00:00</time>
        <ele>2149.0</ele>
      </trkpt>
      <trkpt lat="42.594178" lon="1.703387">
        <time>1970-01-01T00:00:00+00:00</time>
        <ele>2149.0</ele>
      </trkpt>
      <trkpt lat="42.594262" lon="1.703301">
        <time>1970-01-01T00:00:00+00:00</time>
        <ele>2150.0</ele>
      </trkpt>
      <trkpt lat="42.594447" lon="1.703247">
        <time>1970-01-01T00:00:00+00:00</time>
        <ele>2148.0</ele>
      </trkpt>
      <trkpt lat="42.59461" lon="1.703229">
        <time>1970-01-01T00:00:00+00:00</time>
        <ele>2147.0</ele>
      </trkpt>
      <trkpt lat="42.595361" lon="1.703234">
        <time>1970-01-01T00:00:00+00:00</time>
        <ele>2145.0</ele>
      </trkpt>
      <trkpt lat="42.595775" lon="1.703222">
        <time>1970-01-01T00:00:00+00:00</time>
        <ele>2145.0</ele>
      </trkpt>
      <trkpt lat="42.595964" lon="1.703163">
        <time>1970-01-01T00:00:00+00:00</time>
        <ele>2143.0</ele>
      </trkpt>
      <trkpt lat="42.596189" lon="1.703055">
        <time>1970-01-01T00:00:00+00:00</time>
        <ele>2141.0</ele>
      </trkpt>
      <trkpt lat="42.596391" lon="1.702943">
        <time>1970-01-01T00:00:00+00:00</time>
        <ele>2138.0</ele>
      </trkpt>
      <trkpt lat="42.596726" lon="1.702712">
        <time>1970-01-01T00:00:00+00:00</time>
        <ele>2130.0</ele>
      </trkpt>
      <trkpt lat="42.596896" lon="1.702637">
        <time>1970-01-01T00:00:00+00:00</time>
        <ele>2126.0</ele>
      </trkpt>
      <trkpt lat="42.59692" lon="1.702653">
        <time>1970-01-01T00:00:00+00:00</time>
        <ele>2125.0</ele>
      </trkpt>
      <trkpt lat="42.597086" lon="1.702353">
        <time>1970-01-01T00:00:00+00:00</time>
        <ele>2117.0</ele>
      </trkpt>
      <trkpt lat="42.597102" lon="1.702219">
        <time>1970-01-01T00:00:00+00:00</time>
        <ele>2115.0</ele>
      </trkpt>
      <trkpt lat="42.597058" lon="1.702025">
        <time>1970-01-01T00:00:00+00:00</time>
        <ele>2115.0</ele>
      </trkpt>
      <trkpt lat="42.597054" lon="1.701843">
        <time>1970-01-01T00:00:00+00:00</time>
        <ele>2114.0</ele>
      </trkpt>
      <trkpt lat="42.597106" lon="1.701709">
        <time>1970-01-01T00:00:00+00:00</time>
        <ele>2110.0</ele>
      </trkpt>
      <trkpt lat="42.597138" lon="1.701565">
        <time>1970-01-01T00:00:00+00:00</time>
        <ele>2108.0</ele>
      </trkpt>
      <trkpt lat="42.597167" lon="1.701327">
        <time>1970-01-01T00:00:00+00:00</time>
        <ele>2106.0</ele>
      </trkpt>
      <trkpt lat="42.597222" lon="1.701324">
        <time>1970-01-01T00:00:00+00:00</time>
        <ele>2102.0</ele>
      </trkpt>
      <trkpt lat="42.597263" lon="1.701296">
        <time>1970-01-01T00:00:00+00:00</time>
        <ele>2100.0</ele>
      </trkpt>
      <trkpt lat="42.597302" lon="1.701303">
        <time>1970-01-01T00:00:00+00:00</time>
        <ele>2098.0</ele>
      </trkpt>
      <trkpt lat="42.597334" lon="1.701267">
        <time>1970-01-01T00:00:00+00:00</time>
        <ele>2096.0</ele>
      </trkpt>
      <trkpt lat="42.597368" lon="1.701292">
        <time>1970-01-01T00:00:00+00:00</time>
        <ele>2095.0</ele>
      </trkpt>
      <trkpt lat="42.597455" lon="1.701185">
        <time>1970-01-01T00:00:00+00:00</time>
        <ele>2091.0</ele>
      </trkpt>
      <trkpt lat="42.597498" lon="1.701114">
        <time>1970-01-01T00:00:00+00:00</time>
        <ele>2088.0</ele>
      </trkpt>
      <trkpt lat="42.597504" lon="1.701036">
        <time>1970-01-01T00:00:00+00:00</time>
        <ele>2088.0</ele>
      </trkpt>
      <trkpt lat="42.597576" lon="1.7009">
        <time>1970-01-01T00:00:00+00:00</time>
        <ele>2085.0</ele>
      </trkpt>
      <trkpt lat="42.597763" lon="1.700707">
        <time>1970-01-01T00:00:00+00:00</time>
        <ele>2075.0</ele>
      </trkpt>
      <trkpt lat="42.597938" lon="1.700191">
        <time>1970-01-01T00:00:00+00:00</time>
        <ele>2068.0</ele>
      </trkpt>
      <trkpt lat="42.598158" lon="1.699939">
        <time>1970-01-01T00:00:00+00:00</time>
        <ele>2060.0</ele>
      </trkpt>
      <trkpt lat="42.598288" lon="1.699738">
        <time>1970-01-01T00:00:00+00:00</time>
        <ele>2051.0</ele>
      </trkpt>
      <trkpt lat="42.598451" lon="1.699528">
        <time>1970-01-01T00:00:00+00:00</time>
        <ele>2039.0</ele>
      </trkpt>
      <trkpt lat="42.598466" lon="1.699443">
        <time>1970-01-01T00:00:00+00:00</time>
        <ele>2037.0</ele>
      </trkpt>
      <trkpt lat="42.598589" lon="1.699266">
        <time>1970-01-01T00:00:00+00:00</time>
        <ele>2032.0</ele>
      </trkpt>
      <trkpt lat="42.598662" lon="1.699305">
        <time>1970-01-01T00:00:00+00:00</time>
        <ele>2030.0</ele>
      </trkpt>
      <trkpt lat="42.598813" lon="1.69911">
        <time>1970-01-01T00:00:00+00:00</time>
        <ele>2023.0</ele>
      </trkpt>
      <trkpt lat="42.598879" lon="1.6989">
        <time>1970-01-01T00:00:00+00:00</time>
        <ele>2022.0</ele>
      </trkpt>
      <trkpt lat="42.599027" lon="1.698821">
        <time>1970-01-01T00:00:00+00:00</time>
        <ele>2014.0</ele>
      </trkpt>
      <trkpt lat="42.599106" lon="1.6988">
        <time>1970-01-01T00:00:00+00:00</time>
        <ele>2010.0</ele>
      </trkpt>
      <trkpt lat="42.599217" lon="1.698715">
        <time>1970-01-01T00:00:00+00:00</time>
        <ele>2006.0</ele>
      </trkpt>
      <trkpt lat="42.599411" lon="1.698457">
        <time>1970-01-01T00:00:00+00:00</time>
        <ele>1997.0</ele>
      </trkpt>
      <trkpt lat="42.599453" lon="1.698433">
        <time>1970-01-01T00:00:00+00:00</time>
        <ele>1994.0</ele>
      </trkpt>
      <trkpt lat="42.599504" lon="1.698304">
        <time>1970-01-01T00:00:00+00:00</time>
        <ele>1993.0</ele>
      </trkpt>
      <trkpt lat="42.599544" lon="1.698326">
        <time>1970-01-01T00:00:00+00:00</time>
        <ele>1990.0</ele>
      </trkpt>
      <trkpt lat="42.599599" lon="1.698299">
        <time>1970-01-01T00:00:00+00:00</time>
        <ele>1988.0</ele>
      </trkpt>
      <trkpt lat="42.599623" lon="1.698251">
        <time>1970-01-01T00:00:00+00:00</time>
        <ele>1987.0</ele>
      </trkpt>
      <trkpt lat="42.599718" lon="1.698246">
        <time>1970-01-01T00:00:00+00:00</time>
        <ele>1982.0</ele>
      </trkpt>
      <trkpt lat="42.599727" lon="1.698309">
        <time>1970-01-01T00:00:00+00:00</time>
        <ele>1981.0</ele>
      </trkpt>
      <trkpt lat="42.599751" lon="1.698309">
        <time>1970-01-01T00:00:00+00:00</time>
        <ele>1980.0</ele>
      </trkpt>
      <trkpt lat="42.599771" lon="1.698199">
        <time>1970-01-01T00:00:00+00:00</time>
        <ele>1981.0</ele>
      </trkpt>
      <trkpt lat="42.599932" lon="1.698215">
        <time>1970-01-01T00:00:00+00:00</time>
        <ele>1974.0</ele>
      </trkpt>
      <trkpt lat="42.600343" lon="1.697797">
        <time>1970-01-01T00:00:00+00:00</time>
        <ele>1956.0</ele>
      </trkpt>
      <trkpt lat="42.600385" lon="1.697692">
        <time>1970-01-01T00:00:00+00:00</time>
        <ele>1954.0</ele>
      </trkpt>
      <trkpt lat="42.600403" lon="1.6974">
        <time>1970-01-01T00:00:00+00:00</time>
        <ele>1951.0</ele>
      </trkpt>
      <trkpt lat="42.600439" lon="1.697324">
        <time>1970-01-01T00:00:00+00:00</time>
        <ele>1948.0</ele>
      </trkpt>
      <trkpt lat="42.600562" lon="1.697302">
        <time>1970-01-01T00:00:00+00:00</time>
        <ele>1943.0</ele>
      </trkpt>
      <trkpt lat="42.600568" lon="1.697244">
        <time>1970-01-01T00:00:00+00:00</time>
        <ele>1942.0</ele>
      </trkpt>
      <trkpt lat="42.600609" lon="1.697204">
        <time>1970-01-01T00:00:00+00:00</time>
        <ele>1940.0</ele>
      </trkpt>
      <trkpt lat="42.600719" lon="1.697196">
        <time>1970-01-01T00:00:00+00:00</time>
        <ele>1936.0</ele>
      </trkpt>
      <trkpt lat="42.600774" lon="1.697076">
        <time>1970-01-01T00:00:00+00:00</time>
        <ele>1933.0</ele>
      </trkpt>
      <trkpt lat="42.60085" lon="1.696845">
        <time>1970-01-01T00:00:00+00:00</time>
        <ele>1931.0</ele>
      </trkpt>
      <trkpt lat="42.600999" lon="1.696585">
        <time>1970-01-01T00:00:00+00:00</time>
        <ele>1926.0</ele>
      </trkpt>
      <trkpt lat="42.601062" lon="1.696372">
        <time>1970-01-01T00:00:00+00:00</time>
        <ele>1922.0</ele>
      </trkpt>
      <trkpt lat="42.601237" lon="1.696175">
        <time>1970-01-01T00:00:00+00:00</time>
        <ele>1916.0</ele>
      </trkpt>
      <trkpt lat="42.601162" lon="1.695854">
        <time>1970-01-01T00:00:00+00:00</time>
        <ele>1914.0</ele>
      </trkpt>
      <trkpt lat="42.601132" lon="1.695588">
        <time>1970-01-01T00:00:00+00:00</time>
        <ele>1914.0</ele>
      </trkpt>
      <trkpt lat="42.60115" lon="1.695288">
        <time>1970-01-01T00:00:00+00:00</time>
        <ele>1913.0</ele>
      </trkpt>
      <trkpt lat="42.601304" lon="1.694834">
        <time>1970-01-01T00:00:00+00:00</time>
        <ele>1904.0</ele>
      </trkpt>
      <trkpt lat="42.601267" lon="1.694287">
        <time>1970-01-01T00:00:00+00:00</time>
        <ele>1901.0</ele>
      </trkpt>
      <trkpt lat="42.601194" lon="1.694035">
        <time>1970-01-01T00:00:00+00:00</time>
        <ele>1903.0</ele>
      </trkpt>
      <trkpt lat="42.601178" lon="1.693724">
        <time>1970-01-01T00:00:00+00:00</time>
        <ele>1903.0</ele>
      </trkpt>
      <trkpt lat="42.601241" lon="1.693332">
        <time>1970-01-01T00:00:00+00:00</time>
        <ele>1897.0</ele>
      </trkpt>
      <trkpt lat="42.60133" lon="1.693029">
        <time>1970-01-01T00:00:00+00:00</time>
        <ele>1893.0</ele>
      </trkpt>
      <trkpt lat="42.601427" lon="1.692482">
        <time>1970-01-01T00:00:00+00:00</time>
        <ele>1886.0</ele>
      </trkpt>
      <trkpt lat="42.601427" lon="1.691994">
        <time>1970-01-01T00:00:00+00:00</time>
        <ele>1883.0</ele>
      </trkpt>
      <trkpt lat="42.601482" lon="1.690749">
        <time>1970-01-01T00:00:00+00:00</time>
        <ele>1867.0</ele>
      </trkpt>
      <trkpt lat="42.601466" lon="1.690497">
        <time>1970-01-01T00:00:00+00:00</time>
        <ele>1866.0</ele>
      </trkpt>
      <trkpt lat="42.601486" lon="1.690288">
        <time>1970-01-01T00:00:00+00:00</time>
        <ele>1864.0</ele>
      </trkpt>
      <trkpt lat="42.601644" lon="1.689926">
        <time>1970-01-01T00:00:00+00:00</time>
        <ele>1856.0</ele>
      </trkpt>
      <trkpt lat="42.601567" lon="1.689593">
        <time>1970-01-01T00:00:00+00:00</time>
        <ele>1855.0</ele>
      </trkpt>
      <trkpt lat="42.601482" lon="1.689043">
        <time>1970-01-01T00:00:00+00:00</time>
        <ele>1851.0</ele>
      </trkpt>
      <trkpt lat="42.601519" lon="1.688544">
        <time>1970-01-01T00:00:00+00:00</time>
        <ele>1846.0</ele>
      </trkpt>
      <trkpt lat="42.601564" lon="1.688373">
        <time>1970-01-01T00:00:00+00:00</time>
        <ele>1843.0</ele>
      </trkpt>
      <trkpt lat="42.601662" lon="1.688146">
        <time>1970-01-01T00:00:00+00:00</time>
        <ele>1839.0</ele>
      </trkpt>
      <trkpt lat="42.601802" lon="1.687884">
        <time>1970-01-01T00:00:00+00:00</time>
        <ele>1837.0</ele>
      </trkpt>
      <trkpt lat="42.601933" lon="1.687582">
        <time>1970-01-01T00:00:00+00:00</time>
        <ele>1834.0</ele>
      </trkpt>
      <trkpt lat="42.601967" lon="1.687388">
        <time>1970-01-01T00:00:00+00:00</time>
        <ele>1834.0</ele>
      </trkpt>
      <trkpt lat="42.601977" lon="1.687163">
        <time>1970-01-01T00:00:00+00:00</time>
        <ele>1833.0</ele>
      </trkpt>
      <trkpt lat="42.601933" lon="1.687091">
        <time>1970-01-01T00:00:00+00:00</time>
        <ele>1833.0</ele>
      </trkpt>
      <trkpt lat="42.601813" lon="1.686799">
        <time>1970-01-01T00:00:00+00:00</time>
        <ele>1831.0</ele>
      </trkpt>
      <trkpt lat="42.601767" lon="1.68631">
        <time>1970-01-01T00:00:00+00:00</time>
        <ele>1829.0</ele>
      </trkpt>
      <trkpt lat="42.60169" lon="1.68616">
        <time>1970-01-01T00:00:00+00:00</time>
        <ele>1828.0</ele>
      </trkpt>
      <trkpt lat="42.601596" lon="1.686075">
        <time>1970-01-01T00:00:00+00:00</time>
        <ele>1828.0</ele>
      </trkpt>
    </trkseg>
  </trk>
</gpx>
